Flag for Germany Weather past 2 weeks in Rastatt, Baden-Württemberg, Germany

Now
55 °F

Passing clouds.


Feels Like: 52 °F
Forecast: 51 / 53 °F
Wind: 12 mph from Southwest

Location: Karlsruhe - Baden Wurttemberg

Current Time: Mar 28, 2015 at 2:12:12 PM

Latest Report: Mar 28, 2015 at 1:50 PM


Visibility: N/A

Pressure: 30.09 "Hg

Humidity: 38%

Dew point: 30 °F

Location of RastattLocation

Historic Weather in Rastatt — Graph

°F

Rastatt temperature yesterday

Maximum temperature yesterday: 54 °F (at 2:50 PM)
Minimum temperature yesterday: 41 °F (at 6:50 AM)
Average temperature yesterday: 47 °F

Past Weeks' High & Low Weather Summary

 TemperatureHumidityPressure
High64 °F (Mar 18, 2:50 PM)100% (Mar 18, 7:50 AM)30.27 "Hg (Mar 18, 7:50 AM)
Low30 °F (Mar 24, 5:20 AM)34% (Mar 18, 2:50 PM)29.62 "Hg (Mar 25, 5:20 AM)
Average46 °F65%30.07 "Hg
* Reported Mar 13 12:20 PM — Mar 28 12:50 PM, Rastatt, Weather by CustomWeather, © 2015

Note: Actual official high and low records may vary slightly from our data, if they occured in-between our weather recording intervals... More about our weather records

Advertising

Rastatt weather history for previous 24 hours

 ConditionsComfort  
Time TempWeatherWind HumidityBarometerVisibility
12:50 PM
Sat, Mar 28
55 °FRefreshingly cool.13 mph38%30.15 "HgN/A
12:20 PM54 °FPassing clouds.13 mph38%30.15 "HgN/A
11:50 AM54 °FPassing clouds.10 mph38%30.15 "HgN/A
11:20 AM52 °FPassing clouds.12 mph41%30.18 "HgN/A
10:50 AM52 °FSunny.14 mph44%30.18 "Hg10 mi
10:20 AM50 °FSunny.13 mph50%30.21 "Hg10 mi
9:50 AM50 °FPassing clouds.10 mph50%30.21 "HgN/A
9:20 AM46 °FSunny.8 mph62%30.21 "Hg10 mi
8:50 AM45 °FPassing clouds.6 mph66%30.21 "HgN/A
8:20 AM43 °FSunny.3 mph71%30.24 "Hg10 mi
7:50 AM41 °FSunny.5 mph76%30.24 "Hg10 mi
7:20 AM39 °FSunny.5 mph70%30.24 "Hg10 mi
6:50 AM37 °FSunny.5 mph81%30.24 "Hg10 mi
6:20 AM37 °FSunny.5 mph81%30.24 "Hg10 mi
5:50 AM37 °FClear.5 mph81%30.24 "Hg10 mi
5:20 AM39 °FClear.3 mph75%30.24 "Hg10 mi
11:50 PM
Fri, Mar 27
41 °FClear.6 mph66%30.27 "Hg10 mi
11:20 PM43 °FClear.5 mph61%30.24 "Hg10 mi
10:50 PM43 °FClear.5 mph61%30.24 "Hg10 mi
10:20 PM45 °FClear.6 mph57%30.24 "Hg10 mi
9:50 PM41 °FClear.6 mph66%30.24 "Hg10 mi
9:20 PM41 °FClear.6 mph61%30.24 "Hg10 mi
8:50 PM43 °FClear.5 mph57%30.24 "Hg10 mi
8:20 PM46 °FClear.3 mph50%30.21 "Hg10 mi
7:50 PM48 °FClear.3 mph46%30.21 "Hg10 mi
7:20 PM48 °FPassing clouds.5 mph46%30.21 "HgN/A
6:50 PM50 °FPassing clouds.6 mph40%30.18 "HgN/A
6:20 PM52 °FPartly sunny.8 mph38%30.18 "HgN/A
5:50 PM52 °FPartly sunny.10 mph41%30.15 "HgN/A
5:20 PM54 °FPartly sunny.7 mph38%30.15 "HgN/A
4:50 PM52 °FPartly sunny.8 mph41%30.15 "HgN/A
4:20 PM52 °FPassing clouds.8 mph41%30.12 "HgN/A
3:50 PM54 °FPassing clouds.8 mph38%30.12 "HgN/A
3:20 PM52 °FSunny.10 mph41%30.12 "Hg10 mi
2:50 PM54 °FScattered clouds.9 mph41%30.12 "HgN/A
2:20 PM52 °FScattered clouds.8 mph41%30.12 "HgN/A
Weather by CustomWeather, © 2015

See weather overviewHow to use our weather pages